RH
20 19 16 12 8 6 6 6 6 6 6 6 6 5 5 5 4 4 4 3 3 3 3 4 6 8 8 9 9 8 8 9 10 8 8 10 12 12 20 18 17 53 55 42 56 41 41
13 13 14 16 17 18 18 17 17 16 16 16 16 16 16 16 16 16 16 15 12 9 5 3 4 7 6 10 9 8 8 9 10 10 9 10 14 12 12 16 19 22 36 47 55 56 63
10 10 9 9 9 9 9 9 8 8 7 7 6 6 6 6 6 6 8 11 14 16 17 16 6 6 6 9 8 7 8 9 10 11 10 11 14 13 12 20 22 30 43 48 54 49 65
7 7 7 6 6 5 5 5 5 5 6 14 42 49 47 32 13 8 6 6 7 21 15 15 11 16 8 10 8 6 8 10 12 14 11 12 12 14 18 22 46 33 45 41 54 61 70
5 5 5 5 5 6 7 9 12 20 34 54 52 48 48 50 56 48 36 38 21 29 25 14 15 13 13 11 6 8 9 10 13 14 13 15 12 17 27 32 23 26 41 45 52 62 63
8 8 8 8 9 16 23 31 47 48 53 57 54 51 44 44 47 47 49 52 47 37 22 19 17 18 17 11 6 10 10 10 14 14 20 24 14 30 26 31 30 39 47 50 54 66 69
13 14 14 16 32 46 49 55 56 61 61 63 63 61 42 42 33 32 44 42 42 35 33 27 24 21 15 7 9 10 12 11 14 17 29 22 34 25 16 19 29 46 54 47 57 54 58
46 40 34 44 56 57 61 64 64 68 71 73 73 68 49 47 43 40 44 44 43 41 35 28 19 14 8 7 11 12 12 11 14 26 32 31 24 14 16 20 37 40 45 50 55 48 49
64 61 57 62 66 67 70 73 73 74 74 74 75 70 54 51 48 44 49 50 50 45 34 20 14 11 9 10 13 14 13 12 13 30 28 23 23 16 20 29 32 39 42 48 56 50 46
74 72 69 71 73 74 76 81 83 81 80 80 80 80 65 55 58 50 45 45 48 48 29 19 16 13 11 13 14 16 13 15 13 18 24 30 21 20 28 28 30 36 37 42 44 50 39
90 86 77 78 76 78 79 81 82 87 84 81 84 80 76 59 62 59 54 46 47 40 68 20 14 14 13 15 17 15 15 15 14 17 25 31 21 22 24 24 32 37 39 41 39 44 40
96 88 90 90 87 84 87 88 85 84 87 84 67 86 82 67 60 65 52 43 45 29 54 17 16 15 16 17 16 16 17 13 16 17 24 31 24 23 26 24 29 26 35 38 40 47 46
74 80 76 95 92 89 85 92 86 85 85 81 84 83 72 82 71 72 56 46 47 42 22 17 18 18 21 18 17 19 15 13 19 30 36 36 31 25 27 31 38 34 38 39 38 44 41
37 28 46 88 61 82 83 98 74 85 69 72 87 87 79 82 75 82 62 48 49 36 29 26 24 33 20 17 20 19 14 31 17 21 37 36 44 30 27 24 37 42 44 42 35 32 30
28 27 34 88 40 40 43 49 50 99 78 58 80 63 74 64 75 86 67 59 50 49 43 37 30 23 26 20 21 16 15 28 18 22 34 33 35 27 28 26 35 46 45 30 46 34 32
34 34 34 36 36 36 35 34 43 78 92 59 56 76 45 63 74 86 72 62 56 54 48 35 26 23 26 25 23 22 22 22 23 32 38 36 36 31 30 30 30 39 44 41 41 39 32
39 37 35 34 32 31 31 32 34 78 95 71 77 60 70 71 88 85 74 65 58 57 58 46 32 26 29 28 19 23 25 23 27 38 41 30 34 34 40 34 35 43 42 45 42 40 32
68 67 61 50 36 32 32 38 50 68 88 57 65 84 84 69 63 86 84 63 62 61 63 54 47 34 26 25 19 24 27 24 31 40 41 30 34 44 41 37 27 33 42 44 46 35 34
70 69 67 65 64 61 49 48 50 56 51 56 96 99 87 61 66 96 85 70 76 66 63 54 50 37 28 23 20 22 24 26 36 41 38 42 49 48 40 37 33 38 48 45 49 56 50
77 77 72 63 61 62 64 62 60 52 61 91 98 100 94 62 74 98 84 81 79 70 73 67 60 46 24 22 22 24 23 33 34 44 52 39 52 54 46 44 46 43 44 48 52 56 52
76 75 76 77 74 69 67 62 58 55 47 65 98 98 98 80 82 81 96 95 91 81 80 75 66 59 47 30 25 24 26 32 41 51 60 59 62 60 55 52 52 54 58 57 57 59 58
79 79 78 77 72 65 58 51 52 51 48 57 93 99 100 87 98 81 98 98 99 91 88 80 69 57 43 32 28 37 34 38 52 64 67 64 67 69 68 66 64 63 55 56 64 64 62
80 79 80 78 65 51 42 44 54 64 64 68 87 75 74 80 83 98 93 99 99 97 92 83 73 60 42 36 34 34 39 53 70 72 76 74 78 84 76 75 76 64 42 62 63 48 47
77 72 79 84 70 55 41 41 55 62 53 48 39 41 96 98 87 99 100 100 100 100 98 98 84 71 55 58 59 47 48 75 81 67 71 84 90 94 86 81 68 46 39 38 40 36 42
76 76 80 86 86 81 53 44 59 61 58 57 49 70 93 98 99 98 100 100 99 99 99 98 93 81 74 86 60 74 88 84 71 60 63 76 100 94 86 68 55 47 36 43 44 55 48
76 75 75 78 80 89 74 46 59 65 64 66 69 73 80 96 97 100 100 100 99 99 99 99 99 99 99 98 90 95 94 86 94 80 55 68 79 95 88 77 49 50 44 41 47 72 58
78 77 74 75 75 84 86 53 52 66 70 76 76 78 85 83 96 100 100 97 97 98 99 99 100 98 99 89 98 96 99 95 95 88 66 86 85 89 98 84 63 60 60 64 76 71 72
71 77 76 71 73 79 90 69 52 66 72 79 86 89 95 92 88 94 98 99 100 99 99 99 99 94 97 95 98 95 95 96 96 94 94 89 58 74 86 80 73 68 63 71 72 78 85
50 76 75 70 69 76 80 89 60 65 80 94 99 98 100 100 97 99 99 99 100 99 99 98 98 99 98 96 96 97 95 96 88 94 76 82 71 90 85 88 74 79 91 95 95 95 96
Wind_Speed
8 8 8 8 8 8 7 6 7 8 9 10 12 13 14 15 16 16 16 16 16 16 16 15 15 14 16 13 13 15 16 17 17 17 19 18 17 21 19 17 19 10 15 16 17 19 19
6 7 7 7 7 7 7 8 8 9 10 12 14 15 16 17 17 17 18 17 17 17 16 15 15 13 15 12 12 15 14 17 17 17 18 19 14 20 23 19 17 20 16 15 12 15 15
4 5 5 6 7 7 8 9 10 11 13 14 16 17 19 19 20 18 18 18 18 17 16 16 15 13 13 10 11 15 14 16 17 16 17 18 12 18 23 19 15 21 18 12 12 17 14
4 5 6 6 7 8 9 10 11 12 13 14 16 19 21 22 21 20 19 18 17 17 17 15 12 15 9 7 11 15 13 15 15 16 16 14 12 16 22 21 16 20 9 15 16 20 15
5 5 6 6 7 8 8 9 10 12 13 16 19 21 20 22 22 21 20 20 17 19 17 13 15 6 8 7 10 14 12 15 15 15 16 13 13 17 23 18 12 13 14 16 13 15 15
4 5 5 6 6 7 8 9 10 10 12 17 21 23 23 23 22 23 22 21 21 16 11 15 8 11 8 7 9 10 13 14 14 13 13 14 14 14 17 16 16 17 14 16 13 13 13
4 4 4 4 5 6 8 9 9 12 13 15 19 23 24 26 25 22 19 17 18 15 18 16 13 10 6 3 11 8 14 14 14 11 13 10 10 14 21 16 17 12 10 10 8 12 11
6 6 6 6 6 7 7 9 9 12 14 17 20 20 24 26 25 22 19 18 18 21 22 13 7 1 4 7 12 12 13 14 13 8 13 9 9 15 21 16 18 9 10 7 3 8 7
8 8 8 8 9 9 9 11 13 15 17 18 17 19 23 25 26 22 20 20 19 19 16 4 3 4 2 10 12 14 12 14 12 7 9 5 12 14 20 12 19 7 7 5 3 3 1
10 11 11 12 12 13 13 14 15 17 18 21 23 20 20 22 26 27 25 23 19 21 2 3 1 2 4 13 7 13 11 14 10 6 8 5 11 13 15 11 20 5 5 3 4 10 3
15 15 14 15 15 15 17 19 19 19 19 21 25 22 20 21 26 27 29 26 22 14 1 3 2 4 8 14 14 10 14 13 9 4 7 10 9 13 16 12 21 8 1 2 2 5 7
22 19 19 17 18 19 19 21 23 23 24 22 24 21 20 20 25 26 28 25 23 3 2 4 4 4 14 15 10 11 16 12 7 3 9 15 8 12 16 9 12 5 3 3 3 7 4
25 26 23 21 20 24 24 23 25 24 25 24 24 17 22 18 25 24 26 26 8 4 7 5 8 15 16 12 8 12 13 11 5 4 9 11 9 13 15 11 7 11 0 3 4 3 4
27 27 25 22 24 26 26 25 26 25 24 26 19 21 19 21 25 22 23 22 2 8 11 14 14 19 12 6 11 14 9 5 6 6 8 8 6 11 15 11 10 13 5 2 4 4 5
25 25 23 23 25 24 26 26 27 24 25 22 24 25 25 23 23 20 21 7 6 10 11 17 17 8 5 8 13 8 9 4 5 5 8 7 5 9 10 8 9 6 4 2 3 4 6
22 22 23 22 23 24 24 24 27 24 26 27 27 27 24 21 19 18 18 13 11 12 15 15 9 7 6 11 12 6 5 6 7 7 13 6 8 9 11 7 4 7 8 3 1 3 3
19 19 20 21 21 23 23 23 25 23 27 31 28 31 23 20 16 17 13 14 14 13 14 10 12 15 12 14 11 7 5 9 5 12 13 11 4 6 11 3 4 4 5 4 4 3 3
17 18 18 20 20 21 21 23 25 25 33 33 28 27 21 25 23 17 16 14 16 18 16 15 16 16 15 12 11 9 7 9 9 14 9 8 6 8 10 13 8 10 5 4 4 2 6
21 22 22 22 22 23 24 25 28 28 29 29 30 28 30 22 20 17 24 15 19 16 14 12 13 16 18 14 8 8 11 12 13 13 8 10 3 7 3 4 8 11 9 9 8 7 13
28 29 30 31 31 30 31 32 32 30 29 25 28 29 32 27 19 15 18 20 17 16 17 16 18 15 13 15 17 12 13 12 17 16 17 15 13 15 14 9 11 13 14 13 11 12 10
27 28 28 30 33 35 35 34 32 31 29 29 26 31 29 22 21 24 23 29 23 21 18 18 20 17 18 20 19 19 18 19 19 23 21 18 16 15 21 21 22 25 24 22 23 24 14
28 28 27 29 29 30 30 30 29 29 29 30 31 32 35 33 27 26 26 27 19 22 22 21 21 17 17 20 18 15 19 21 22 23 19 18 13 17 26 22 17 25 21 19 20 21 26
30 29 28 27 26 26 28 28 28 28 28 28 31 35 37 35 32 30 29 26 19 23 22 22 19 18 18 16 18 21 22 24 24 26 22 23 16 9 10 13 13 19 22 22 19 20 16
29 28 27 25 24 23 24 25 25 25 27 28 27 26 26 33 30 30 31 29 28 32 23 24 24 22 22 21 21 23 27 28 26 29 28 26 20 12 13 12 6 9 9 11 14 15 16
31 28 27 26 24 24 24 24 24 24 25 25 25 22 30 32 36 35 34 33 30 33 26 27 27 27 26 25 20 18 18 21 20 21 22 22 20 9 7 10 15 17 21 19 20 20 19
36 33 30 28 27 25 25 25 24 24 24 24 24 25 29 32 35 30 33 35 38 33 35 32 32 31 29 23 16 12 8 7 6 6 9 11 15 14 8 6 5 7 7 10 12 16 20
39 37 33 30 29 27 27 26 26 26 27 27 25 25 28 36 37 37 39 42 34 34 36 37 31 27 25 20 18 20 17 20 10 8 10 12 17 23 17 11 13 18 16 14 7 11 11
39 40 37 34 32 30 28 27 26 27 28 31 28 26 29 37 40 39 40 37 40 31 30 34 30 25 22 24 19 18 16 16 17 20 18 11 10 10 10 10 12 16 15 12 15 18 19
39 39 39 36 35 33 31 31 29 28 27 29 30 27 28 32 38 40 37 34 40 37 33 33 31 29 18 13 15 13 14 14 14 8 18 18 21 14 16 11 15 18 20 23 25 27 28
Wind_Direction
67 64 57 54 51 47 37 22 6 1 352 346 342 338 337 335 335 338 335 334 332 328 329 330 333 332 337 334 338 342 343 351 352 354 357 355 356 357 355 346 348 330 318 321 318 320 305
49 46 43 39 31 28 21 12 3 354 350 345 341 337 334 332 332 331 329 329 329 329 331 330 326 322 332 322 331 336 338 348 349 351 352 351 349 353 356 347 350 343 344 350 336 348 332
23 21 18 12 12 10 3 356 353 348 348 347 345 340 335 331 329 329 327 325 325 324 323 324 324 323 323 319 327 339 337 346 350 346 347 350 348 351 350 355 346 354 12 356 353 342 331
334 336 342 348 351 353 351 347 348 349 354 358 355 349 346 340 336 334 332 329 325 328 321 316 317 319 319 312 327 338 339 349 349 345 350 352 353 351 353 4 343 357 335 352 342 339 345
317 326 333 339 349 353 352 354 357 356 1 355 352 351 346 345 339 337 336 335 327 327 321 311 315 315 318 315 330 339 344 349 348 348 356 357 350 360 8 345 348 343 341 351 357 352 6
311 317 331 341 352 355 354 358 357 357 348 355 0 360 354 349 345 339 334 330 326 328 325 320 311 319 301 308 335 344 346 348 348 355 7 353 358 10 355 0 349 329 334 350 354 12 33
315 317 326 333 344 350 346 346 347 349 347 340 345 349 353 352 349 346 336 342 343 343 334 324 306 296 274 325 345 352 346 350 351 8 360 356 14 2 357 357 350 328 329 350 22 61 39
304 310 313 314 322 330 328 327 332 338 342 339 348 344 352 354 353 356 357 352 349 337 337 333 341 81 140 352 348 348 345 351 351 4 2 1 360 350 351 354 353 326 334 356 34 87 54
295 300 300 303 307 312 318 322 322 323 329 338 345 345 350 356 356 351 346 342 335 338 335 12 39 135 352 345 340 343 340 345 341 2 357 13 346 352 354 354 356 333 335 332 298 319 312
285 288 290 293 297 305 309 313 317 317 319 325 330 336 338 345 352 356 352 347 339 334 356 356 341 293 332 345 330 330 335 341 340 322 349 335 341 357 0 4 359 330 300 296 304 308 343
276 280 283 286 292 294 298 302 311 316 316 325 327 329 329 335 347 348 350 345 340 333 131 315 317 316 328 339 329 327 336 337 339 344 6 333 337 355 5 360 6 323 226 280 278 312 329
279 281 278 282 287 290 294 298 304 308 312 316 325 322 319 325 333 341 348 348 342 9 323 313 301 303 325 332 329 327 339 343 341 329 355 345 342 360 357 348 359 15 240 276 294 295 276
271 278 279 276 283 289 288 296 298 305 309 312 318 319 325 320 331 337 345 350 353 1 327 310 314 317 324 326 327 333 337 348 9 351 345 334 320 340 353 7 338 10 173 287 278 286 322
272 278 281 269 293 287 292 291 300 305 312 312 307 311 328 318 320 326 338 353 352 316 309 305 313 316 315 318 328 332 339 335 347 4 340 337 319 331 345 359 347 11 63 307 297 304 342
270 273 273 269 284 286 292 294 297 296 303 307 300 312 308 315 317 324 335 335 312 309 308 313 324 332 312 309 328 326 325 286 323 4 1 328 303 302 337 342 18 348 353 11 290 294 299
268 269 272 274 278 282 288 294 299 297 300 307 310 311 317 315 313 323 327 325 313 309 309 314 318 299 308 309 322 311 300 282 313 340 344 296 299 284 317 322 286 28 21 310 242 277 278
271 272 276 278 278 280 283 287 291 294 288 299 306 310 316 314 309 320 317 316 320 322 317 309 295 289 295 305 298 297 267 289 270 326 329 316 262 300 329 281 247 312 2 334 309 260 297
270 276 279 283 284 282 281 282 286 288 288 298 302 308 306 309 304 303 310 309 322 319 311 301 300 296 292 289 287 289 264 255 283 317 315 297 283 276 289 282 244 248 274 314 286 195 263
275 278 281 284 286 287 284 284 285 284 286 295 298 289 300 300 298 290 307 291 312 314 311 300 296 294 292 282 292 277 274 270 277 307 294 294 271 303 230 301 267 258 260 270 270 265 247
275 278 279 282 283 284 286 286 285 283 281 283 293 288 293 297 295 290 290 289 303 306 306 303 299 294 283 282 284 272 280 273 290 297 301 279 270 242 259 287 287 262 277 270 250 259 262
272 274 277 278 281 280 281 282 282 281 278 270 281 279 278 280 284 285 278 282 292 298 300 301 296 293 283 279 282 279 279 282 286 299 293 269 261 264 267 271 272 272 270 261 253 253 258
271 273 276 278 280 282 283 284 283 280 276 266 273 268 273 285 289 278 276 275 289 288 297 298 294 290 274 271 276 277 282 290 294 294 283 266 271 283 289 295 277 271 268 259 252 251 256
271 272 274 275 276 281 283 283 281 280 275 275 268 273 269 270 279 271 284 266 289 287 289 293 293 282 273 276 273 272 274 282 287 286 278 266 275 292 284 291 298 283 269 250 245 250 250
271 273 271 272 276 281 283 283 283 279 275 276 274 270 266 271 279 276 279 279 282 282 274 285 284 277 277 271 267 268 269 272 280 273 262 258 264 252 275 286 242 263 261 239 234 262 268
266 269 270 271 275 280 282 280 278 275 274 275 277 262 266 272 276 272 282 276 284 282 278 280 276 275 270 270 273 282 285 287 277 268 261 255 237 249 250 251 286 282 269 257 262 269 271
259 263 266 269 273 277 280 280 275 269 268 269 274 266 262 270 277 287 281 272 294 285 283 293 273 276 277 263 264 254 241 250 260 267 254 244 224 215 223 258 263 259 267 263 268 272 272
257 260 264 266 270 271 274 275 272 267 267 267 268 270 262 265 273 277 278 284 294 285 285 289 275 270 270 257 243 251 251 250 244 231 234 242 232 223 234 253 263 270 270 271 254 270 275
259 258 261 264 266 268 271 272 272 269 267 267 269 268 267 273 277 279 284 278 281 290 285 281 276 267 256 247 244 242 242 243 245 243 248 232 228 228 220 234 259 259 262 260 273 278 276
257 259 260 261 264 266 268 267 267 268 266 267 272 276 281 275 275 284 282 275 283 286 284 271 266 271 259 236 231 237 241 241 242 238 241 232 230 231 219 231 259 276 284 288 285 279 282